CW5430 Weather Reports


time (UTC)temp
C
wind
direction
speed
KPH
gust
KPH
rain 1hr
cm
rain 24hr
cm
rain mn
cm
humidity
%
barometer
mb
20260504183024 22 188 3.2 12.9 0.00 0.00 0.00 35 1010.9
20260504182509 22 282 4.8 12.9 0.00 0.00 0.00 35 1011.0
20260504182010 22 191 4.8 12.9 0.00 0.00 0.00 33 1011.1
20260504181508 22 250 3.2 8.0 0.00 0.00 0.00 33 1011.1
20260504181004 22 229 1.6 11.3 0.00 0.00 0.00 38 1011.2
20260504180507 22 138 1.6 16.1 0.00 0.00 0.00 40 1011.3
20260504180010 22 235 4.8 16.1 0.00 0.00 0.00 35 1011.4
20260504175505 22 221 3.2 12.9 0.00 0.00 0.00 37 1011.3
20260504175009 22 269 3.2 22.5 0.00 0.00 0.00 35 1011.6
20260504174514 22 134 4.8 22.5 0.00 0.00 0.00 35 1011.7
20260504174009 22 263 6.4 22.5 0.00 0.00 0.00 33 1011.7
20260504173513 22 299 3.2 9.7 0.00 0.00 0.00 38 1011.8
20260504173033 21 260 3.2 11.3 0.00 0.00 0.00 38 1011.9
20260504172508 21 267 4.8 14.5 0.00 0.00 0.00 36 1011.9
20260504172009 21 231 3.2 14.5 0.00 0.00 0.00 35 1012.0
20260504171523 21 257 6.4 12.9 0.00 0.00 0.00 32 1012.2
20260504171009 21 185 4.8 12.9 0.00 0.00 0.00 35 1012.2
20260504170505 21 317 3.2 11.3 0.00 0.00 0.00 38 1012.2
20260504151013 19 311 1.6 9.7 0.00 0.00 0.00 46 1013.7
20260504150511 19 290 3.2 14.5 0.00 0.00 0.00 43 1013.8
20260504141014 17 235 3.2 11.3 0.00 0.00 0.00 56 1013.9
20260504140508 17 228 1.6 12.9 0.00 0.00 0.00 54 1013.9
20260504130510 15 235 4.8 11.3 0.00 0.00 0.00 61 1014.3
20260504110507 9 234 1.6 8.0 0.00 0.00 0.00 77 1014.7
20260504100506 8 254 0.0 9.7 0.00 0.00 0.00 72 1014.7
20260504082007 7 262 0.0 3.2 0.00 0.00 0.00 66 1014.7
20260504081524 7 262 0.0 3.2 0.00 0.00 0.00 66 1014.6
20260504081007 7 273 0.0 3.2 0.00 0.00 0.00 66 1014.6
20260504080503 6 242 0.0 0.0 0.00 0.00 0.00 64 1014.6
20260504050507 8 258 0.0 3.2 0.00 0.00 0.00 56 1014.4
20260504045507 8 258 0.0 3.2 0.00 0.00 0.00 56 1014.3
20260504045009 8 265 0.0 3.2 0.00 0.00 0.00 56 1014.4
20260504044537 8 242 0.0 3.2 0.00 0.00 0.00 55 1014.4
20260504044010 8 257 0.0 3.2 0.00 0.00 0.00 54 1014.4
20260504043510 8 254 0.0 3.2 0.00 0.00 0.00 54 1014.3
20260504043033 9 244 0.0 3.2 0.00 0.00 0.00 53 1014.3
20260504042505 9 254 0.0 3.2 0.00 0.00 0.00 53 1014.2
20260504042009 9 246 0.0 3.2 0.00 0.00 0.00 52 1014.2
20260504041517 9 246 0.0 3.2 0.00 0.00 0.00 52 1014.1
20260504041007 9 249 0.0 3.2 0.00 0.00 0.00 52 1014.0
20260504040510 9 254 0.0 3.2 0.00 0.00 0.00 52 1014.0
20260504040022 10 248 0.0 3.2 0.00 0.00 0.00 51 1014.0
20260504035511 10 286 0.0 3.2 0.00 0.00 0.00 51 1014.0
20260504035010 10 249 0.0 3.2 0.00 0.00 0.00 51 1013.9
20260504034533 10 277 1.6 3.2 0.00 0.00 0.00 51 1013.9
20260504034006 10 271 0.0 3.2 0.00 0.00 0.00 51 1013.8
20260504033515 10 248 0.0 9.7 0.00 0.00 0.00 51 1013.9
20260504033037 10 252 1.6 9.7 0.00 0.00 0.00 52 1013.8
20260504032507 9 250 0.0 3.2 0.00 0.00 0.00 51 1013.9
20260504032009 10 229 0.0 3.2 0.00 0.00 0.00 51 1013.9
20260504031516 10 258 0.0 3.2 0.00 0.00 0.00 50 1013.8
20260504031008 10 221 0.0 3.2 0.00 0.00 0.00 51 1013.8
20260504030507 10 261 1.6 3.2 0.00 0.00 0.00 50 1013.8
20260504030020 10 244 0.0 3.2 0.00 0.00 0.00 51 1013.8
20260504025508 9 231 0.0 3.2 0.00 0.00 0.00 51 1013.8
20260504025009 9 277 1.6 3.2 0.00 0.00 0.00 51 1013.9
20260504024525 9 238 0.0 3.2 0.00 0.00 0.00 51 1013.9
20260504024012 9 244 0.0 3.2 0.00 0.00 0.00 51 1013.9
20260504023512 9 258 0.0 3.2 0.00 0.00 0.00 51 1013.9
20260504023026 9 242 0.0 3.2 0.00 0.00 0.00 51 1013.9
20260504022510 9 240 0.0 3.2 0.00 0.00 0.00 53 1013.9
20260504022012 9 236 0.0 3.2 0.00 0.00 0.00 52 1013.9
20260504021533 9 259 0.0 3.2 0.00 0.00 0.00 54 1014.0
20260504021009 9 242 0.0 3.2 0.00 0.00 0.00 52 1013.9
20260504020507 9 242 0.0 3.2 0.00 0.00 0.00 53 1013.9
20260504020020 9 245 0.0 3.2 0.00 0.00 0.00 53 1013.8
20260504015508 9 245 0.0 3.2 0.00 0.00 0.00 51 1013.8
20260504015009 9 234 0.0 3.2 0.00 0.00 0.00 51 1013.8
20260504014523 9 234 0.0 3.2 0.00 0.00 0.00 51 1013.7
20260504014010 9 221 0.0 3.2 0.00 0.00 0.00 52 1013.7
20260504013509 9 232 0.0 3.2 0.00 0.00 0.00 52 1013.7
20260504013033 10 248 0.0 3.2 0.00 0.00 0.00 52 1013.6
20260504012508 10 229 0.0 3.2 0.00 0.00 0.00 52 1013.5
20260504012010 10 232 0.0 3.2 0.00 0.00 0.00 53 1013.5
20260504011526 10 236 0.0 3.2 0.00 0.00 0.00 50 1013.4
20260504011011 10 236 0.0 3.2 0.00 0.00 0.00 50 1013.3
20260504010520 10 236 0.0 3.2 0.00 0.00 0.00 50 1013.3
20260504010028 10 236 0.0 0.0 0.00 0.00 0.00 50 1013.3
20260504005508 11 236 0.0 1.6 0.00 0.00 0.00 49 1013.2
20260504005006 11 236 0.0 1.6 0.00 0.00 0.00 49 1013.2
20260504004520 11 236 0.0 1.6 0.00 0.00 0.00 46 1013.1
20260504004010 11 236 0.0 3.2 0.00 0.00 0.00 46 1013.1
20260504003510 11 236 0.0 3.2 0.00 0.00 0.00 46 1012.9
20260504003023 12 226 0.0 3.2 0.00 0.00 0.00 45 1012.8
20260504002509 12 226 0.0 3.2 0.00 0.00 0.00 44 1012.8
20260504002010 12 233 0.0 3.2 0.00 0.00 0.00 46 1012.8
20260504001526 12 223 0.0 3.2 0.00 0.00 0.00 44 1012.7
20260504001010 12 223 0.0 3.2 0.00 0.00 0.00 43 1012.7
20260504000508 13 215 0.0 3.2 0.00 0.00 0.00 40 1012.6
20260504000028 13 249 0.0 3.2 0.00 0.00 0.00 39 1012.5
20260503235507 13 254 0.0 3.2 0.00 0.00 0.00 39 1012.4
20260503235008 13 219 0.0 4.8 0.00 0.00 0.00 39 1012.4
20260503234528 13 255 0.0 4.8 0.00 0.00 0.00 38 1012.3
20260503234016 13 260 1.6 6.4 0.00 0.00 0.00 37 1012.2
20260503233507 13 271 1.6 6.4 0.00 0.00 0.00 38 1012.3
20260503233019 13 240 1.6 4.8 0.00 0.00 0.00 36 1012.2
20260503232510 13 251 0.0 4.8 0.00 0.00 0.00 39 1012.2
20260503232015 14 233 1.6 4.8 0.00 0.00 0.00 37 1012.1
20260503231525 14 253 0.0 8.0 0.00 0.00 0.00 36 1012.1
20260503231012 14 251 3.2 12.9 0.00 0.00 0.00 36 1012.1
20260503230509 14 272 1.6 12.9 0.00 0.00 0.00 36 1012.1
20260503230028 14 284 3.2 12.9 0.00 0.00 0.00 36 1012.1
20260503225507 14 279 1.6 6.4 0.00 0.00 0.00 34 1011.9
20260503225009 14 292 1.6 11.3 0.00 0.00 0.00 35 1011.9
20260503224515 15 305 1.6 8.0 0.00 0.00 0.00 35 1011.9
20260503224009 15 302 1.6 6.4 0.00 0.00 0.00 34 1011.9
20260503223511 15 275 3.2 9.7 0.00 0.00 0.00 32 1011.9
20260503223020 15 299 1.6 9.7 0.00 0.00 0.00 35 1011.8
20260503222510 15 306 3.2 6.4 0.00 0.00 0.00 34 1011.8
20260503222010 15 250 1.6 6.4 0.00 0.00 0.00 33 1011.8
20260503221530 15 216 3.2 6.4 0.00 0.00 0.00 33 1011.7
20260503221003 15 332 1.6 6.4 0.00 0.00 0.00 34 1011.8
20260503220504 15 275 1.6 8.0 0.00 0.00 0.00 33 1011.8
20260503220008 15 320 1.6 8.0 0.00 0.00 0.00 34 1011.7
20260503215506 15 268 3.2 8.0 0.00 0.00 0.00 31 1011.8
20260503215008 15 240 1.6 8.0 0.00 0.00 0.00 34 1011.9
20260503214513 16 333 3.2 8.0 0.00 0.00 0.00 32 1011.8
20260503214012 16 272 4.8 8.0 0.00 0.00 0.00 32 1011.8
20260503213509 16 300 1.6 6.4 0.00 0.00 0.00 33 1011.7
20260503213028 16 173 3.2 8.0 0.00 0.00 0.00 31 1011.8
20260503212509 16 222 3.2 12.9 0.00 0.00 0.00 32 1011.8
20260503212012 16 279 3.2 12.9 0.00 0.00 0.00 31 1011.8
20260503211522 16 224 4.8 9.7 0.00 0.00 0.00 32 1011.9
20260503211014 16 248 1.6 6.4 0.00 0.00 0.00 32 1011.9
20260503210508 16 284 1.6 6.4 0.00 0.00 0.00 35 1011.9
20260503210006 16 296 3.2 8.0 0.00 0.00 0.00 32 1011.9
20260503205504 16 241 3.2 9.7 0.00 0.00 0.00 33 1011.9
20260503205008 16 308 3.2 11.3 0.00 0.00 0.00 32 1012.0
20260503204511 16 276 4.8 11.3 0.00 0.00 0.00 32 1012.0
20260503204008 16 293 3.2 14.5 0.00 0.00 0.00 33 1012.1
20260503203507 16 257 4.8 14.5 0.00 0.00 0.00 34 1012.3
20260503203016 16 320 3.2 11.3 0.00 0.00 0.00 34 1012.2
20260503202509 16 305 3.2 9.7 0.00 0.00 0.00 34 1012.2
20260503202010 16 306 3.2 11.3 0.00 0.00 0.00 35 1012.2
20260503201528 15 288 3.2 11.3 0.00 0.00 0.00 36 1012.3
20260503201008 15 315 3.2 8.0 0.00 0.00 0.00 35 1012.2
20260503200510 16 255 1.6 12.9 0.00 0.00 0.00 36 1012.3
20260503200030 15 246 1.6 24.1 0.00 0.00 0.00 37 1012.3
20260503195509 15 238 3.2 24.1 0.00 0.00 0.00 35 1012.3
20260503195006 15 277 8.0 16.1 0.00 0.00 0.00 34 1012.3
20260503194510 15 315 3.2 17.7 0.00 0.00 0.00 37 1012.4
20260503194007 15 288 1.6 17.7 0.00 0.00 0.00 35 1012.4
20260503193506 15 283 3.2 11.3 0.00 0.00 0.00 34 1012.7
20260503193013 15 283 1.6 14.5 0.00 0.00 0.00 35 1012.7
20260503192507 15 279 4.8 14.5 0.00 0.00 0.00 33 1012.8
20260503192011 15 196 3.2 17.7 0.00 0.00 0.00 33 1012.7
20260503191522 15 307 4.8 17.7 0.00 0.00 0.00 32 1012.7
20260503191007 15 308 4.8 14.5 0.00 0.00 0.00 37 1012.8
20260503190507 15 275 4.8 14.5 0.00 0.00 0.00 35 1012.9
20260503190024 14 308 4.8 14.5 0.00 0.00 0.00 34 1012.8
20260503185510 14 28 3.2 11.3 0.00 0.00 0.00 35 1012.9
20260503185011 15 319 4.8 12.9 0.00 0.00 0.00 35 1013.0
20260503184527 15 290 4.8 12.9 0.00 0.00 0.00 32 1013.0
20260503184004 15 43 4.8 12.9 0.00 0.00 0.00 35 1013.0
20260503183512 15 310 3.2 8.0 0.00 0.00 0.00 38 1013.0